Elizabethton, TN

8:14 PM EDT on March 23, 2017 (GMT -0400)
Elizabethton

Weather History for K0A9 - August, 2014

Change the Weather History Date:

Thursday, August 21, 2014

  Actual Average (KTRI) Record (KTRI)
Temperature  
Mean Temperature 72 °F -  
Max Temperature 84 °F 84 °F 98 °F (1983)
Min Temperature 60 °F 62 °F 53 °F (2012)
Cooling Degree Days 7    
Growing Degree Days 22 (Base 50)    
Moisture  
Dew Point 66 °F    
Average Humidity 87    
Maximum Humidity 100    
Minimum Humidity 61    
Precipitation  
Precipitation 0.00 in - - ()
Sea Level Pressure  
Sea Level Pressure 30.17 in    
Wind  
Wind Speed 1 mph (WNW)    
Max Wind Speed 7 mph    
Max Gust Speed -    
Visibility 8 miles    
Events Fog , Rain    
Averages and records for this station are not official NWS values.
T = Trace of Precipitation, MM = Missing Value Source: NWS Daily Summary

Daily Weather History Graph

Daily Weather History Graph

Search for Another Location

Airport or City:

Trip Planner

Search our weather history database for the weather conditions in past years. The results will help you decide how hot, cold, wet, or windy it might be!

Date:

Astronomy

Aug. 21, 2014 Rise Set
Actual Time 6:51 AM EDT 8:11 PM EDT
Civil Twilight 6:24 AM EDT 8:38 PM EDT
Nautical Twilight 5:52 AM EDT 9:10 PM EDT
Astronomical Twilight 5:18 AM EDT 9:44 PM EDT
Moon 3:23 AM EDT (8/21) 5:37 PM EDT (8/21)
Length of Visible Light 14h 14m
Length of Day
13h 20m
Waning Crescent, 13% of the Moon is Illuminated
Aug 21
Waning Crescent
Aug 25
New
Sep 2
First Quarter
Sep 8
Full
Sep 15
Last Quarter

Hourly Weather History & Observations

Time (EDT) Temp. Heat Index Dew Point Humidity Pressure Visibility Wind Dir Wind Speed Gust Speed Precip Events Conditions
12:15 AM 64.4 °F - 64.4 °F 100% 30.13 in 6.0 mi Calm Calm - N/A   Clear
12:35 AM 64.4 °F - 64.4 °F 100% 30.14 in 5.0 mi Calm Calm - N/A   Clear
12:55 AM 64.4 °F - 64.4 °F 100% 30.14 in 5.0 mi Calm Calm - N/A   Scattered Clouds
1:15 AM 64.4 °F - 64.4 °F 100% 30.14 in 4.0 mi Calm Calm - N/A   Scattered Clouds
1:35 AM 64.4 °F - 64.4 °F 100% 30.14 in 0.5 mi Calm Calm - N/A Fog Fog
1:55 AM 64.4 °F - 64.4 °F 100% 30.15 in 3.0 mi Calm Calm - N/A   Overcast
2:15 AM 64.4 °F - 64.4 °F 100% 30.15 in 2.5 mi Calm Calm - N/A   Overcast
2:35 AM 64.4 °F - 64.4 °F 100% 30.15 in 6.0 mi Calm Calm - N/A   Mostly Cloudy
2:55 AM 64.4 °F - 64.4 °F 100% 30.15 in 6.0 mi Calm Calm - N/A   Mostly Cloudy
3:15 AM 64.4 °F - 64.4 °F 100% 30.16 in 1.8 mi Calm Calm - N/A   Overcast
3:35 AM 64.4 °F - 64.4 °F 100% 30.15 in 7.0 mi Calm Calm - N/A   Overcast
3:55 AM 64.4 °F - 62.6 °F 94% 30.15 in 10.0 mi Calm Calm - N/A   Overcast
4:15 AM 62.6 °F - 62.6 °F 100% 30.15 in 7.0 mi Calm Calm - N/A   Mostly Cloudy
4:35 AM 62.6 °F - 60.8 °F 94% 30.15 in 7.0 mi Calm Calm - N/A   Partly Cloudy
4:55 AM 62.6 °F - 60.8 °F 94% 30.16 in 4.0 mi ENE 3.5 mph - N/A   Mostly Cloudy
5:15 AM 62.6 °F - 62.6 °F 100% 30.16 in 8.0 mi Calm Calm - N/A   Mostly Cloudy
5:35 AM 60.8 °F - 60.8 °F 100% 30.16 in 9.0 mi Calm Calm - N/A   Partly Cloudy
5:55 AM 60.8 °F - 60.8 °F 100% 30.17 in 8.0 mi Calm Calm - N/A   Partly Cloudy
6:15 AM 60.8 °F - 60.8 °F 100% 30.18 in 10.0 mi ENE 3.5 mph - N/A   Partly Cloudy
6:35 AM 60.8 °F - 60.8 °F 100% 30.18 in 9.0 mi Variable 3.5 mph - N/A   Clear
6:55 AM 60.8 °F - 60.8 °F 100% 30.18 in 9.0 mi NE 4.6 mph - N/A   Clear
7:15 AM 60.8 °F - 60.8 °F 100% 30.19 in 9.0 mi ENE 4.6 mph - N/A   Clear
7:35 AM 60.8 °F - 60.8 °F 100% 30.20 in 10.0 mi Calm Calm - N/A   Clear
7:55 AM 62.6 °F - 62.6 °F 100% 30.20 in 10.0 mi Calm Calm - N/A   Clear
8:15 AM 64.4 °F - 62.6 °F 94% 30.20 in 10.0 mi Calm Calm - N/A   Clear
8:35 AM 64.4 °F - 62.6 °F 94% 30.20 in 10.0 mi ENE 4.6 mph - N/A   Clear
8:55 AM 64.4 °F - 62.6 °F 94% 30.20 in 10.0 mi Variable 3.5 mph - N/A   Clear
9:15 AM 66.2 °F - 62.6 °F 88% 30.21 in 10.0 mi East 4.6 mph - N/A Rain Light Rain
9:35 AM 66.2 °F - 62.6 °F 88% 30.21 in 10.0 mi East 3.5 mph - N/A Rain Light Rain
9:55 AM 68.0 °F - 62.6 °F 83% 30.21 in 10.0 mi East 4.6 mph - N/A Rain Light Rain
10:15 AM 69.8 °F - 62.6 °F 78% 30.21 in 10.0 mi East 3.5 mph - N/A   Mostly Cloudy
10:35 AM 69.8 °F - 62.6 °F 78% 30.21 in 10.0 mi Calm Calm - N/A   Overcast
10:55 AM 71.6 °F - 64.4 °F 78% 30.21 in 10.0 mi Calm Calm - N/A   Mostly Cloudy
11:15 AM 73.4 °F - 64.4 °F 73% 30.21 in 10.0 mi Calm Calm - N/A   Overcast
11:35 AM 75.2 °F - 62.6 °F 65% 30.21 in 10.0 mi Calm Calm - N/A   Overcast
11:55 AM 77.0 °F - 62.6 °F 61% 30.21 in 10.0 mi Calm Calm - N/A   Mostly Cloudy
12:15 PM 77.0 °F - 64.4 °F 65% 30.21 in 10.0 mi WNW 4.6 mph - N/A   Overcast
12:35 PM 78.8 °F - 64.4 °F 61% 30.21 in 10.0 mi West 5.8 mph - N/A   Mostly Cloudy
1:15 PM 78.8 °F - 66.2 °F 65% 30.21 in 10.0 mi Variable 3.5 mph - N/A   Mostly Cloudy
1:35 PM 80.6 °F 82.7 °F 66.2 °F 61% 30.20 in 10.0 mi Calm Calm - N/A   Mostly Cloudy
1:55 PM 80.6 °F 83.2 °F 68.0 °F 65% 30.20 in 10.0 mi WSW 5.8 mph - N/A   Scattered Clouds
2:15 PM 80.6 °F 83.2 °F 68.0 °F 65% 30.19 in 10.0 mi Variable 5.8 mph - N/A   Partly Cloudy
2:35 PM 80.6 °F 83.2 °F 68.0 °F 65% 30.19 in 10.0 mi WNW 5.8 mph - N/A   Partly Cloudy
2:55 PM 82.4 °F 86.3 °F 69.8 °F 66% 30.18 in 10.0 mi West 5.8 mph - N/A   Clear
3:15 PM 80.6 °F 83.2 °F 68.0 °F 65% 30.17 in 10.0 mi SW 3.5 mph - N/A   Mostly Cloudy
3:35 PM 82.4 °F 86.3 °F 69.8 °F 66% 30.16 in 10.0 mi SW 6.9 mph - N/A   Mostly Cloudy
3:55 PM 82.4 °F 86.3 °F 69.8 °F 66% 30.15 in 10.0 mi WSW 6.9 mph - N/A   Mostly Cloudy
4:15 PM 82.4 °F 86.3 °F 69.8 °F 66% 30.14 in 10.0 mi West 5.8 mph - N/A   Scattered Clouds
4:35 PM 84.2 °F 88.4 °F 69.8 °F 62% 30.13 in 10.0 mi West 4.6 mph - N/A   Clear
4:55 PM 82.4 °F 86.3 °F 69.8 °F 66% 30.13 in 10.0 mi WNW 4.6 mph - N/A   Partly Cloudy
5:15 PM 82.4 °F 86.3 °F 69.8 °F 66% 30.13 in 10.0 mi West 4.6 mph - N/A   Scattered Clouds
5:35 PM 80.6 °F 85.4 °F 73.4 °F 79% 30.12 in 10.0 mi Calm Calm - N/A   Mostly Cloudy
5:55 PM 82.4 °F 87.2 °F 71.6 °F 70% 30.13 in 10.0 mi West 3.5 mph - N/A   Mostly Cloudy
6:15 PM 80.6 °F 84.6 °F 71.6 °F 74% 30.15 in 10.0 mi Variable 5.8 mph - N/A   Partly Cloudy
6:35 PM 80.6 °F 84.6 °F 71.6 °F 74% 30.15 in 10.0 mi WNW 4.6 mph - N/A   Clear
6:55 PM 80.6 °F 84.6 °F 71.6 °F 74% 30.15 in 10.0 mi Calm Calm - N/A   Clear
7:15 PM 77.0 °F - 73.4 °F 89% 30.15 in 10.0 mi Calm Calm - N/A   Clear
7:35 PM 75.2 °F - 71.6 °F 89% 30.15 in 10.0 mi Calm Calm - N/A   Clear
7:55 PM 73.4 °F - 71.6 °F 94% 30.15 in 10.0 mi Calm Calm - N/A   Clear
8:15 PM 73.4 °F - 71.6 °F 94% 30.14 in 10.0 mi Calm Calm - N/A   Clear
8:35 PM 73.4 °F - 71.6 °F 94% 30.14 in 7.0 mi Calm Calm - N/A Rain Rain
8:55 PM 71.6 °F - 71.6 °F 100% 30.13 in 9.0 mi Calm Calm - N/A Rain Light Rain
9:15 PM 71.6 °F - 71.6 °F 100% 30.13 in 8.0 mi North 3.5 mph - N/A   Light Drizzle
9:35 PM 71.6 °F - 71.6 °F 100% 30.14 in 9.0 mi Calm Calm - N/A   Clear
9:55 PM 69.8 °F - 69.8 °F 100% 30.14 in 6.0 mi Calm Calm - N/A   Clear
10:15 PM 69.8 °F - 69.8 °F 100% 30.14 in 7.0 mi Calm Calm - N/A   Clear
10:35 PM 69.8 °F - 69.8 °F 100% 30.15 in 5.0 mi Calm Calm - N/A   Clear
10:55 PM 69.8 °F - 69.8 °F 100% 30.15 in 7.0 mi Calm Calm - N/A   Partly Cloudy
11:15 PM 69.8 °F - 69.8 °F 100% 30.15 in 9.0 mi Calm Calm - N/A   Scattered Clouds
11:35 PM 69.8 °F - 69.8 °F 100% 30.15 in 10.0 mi Calm Calm - N/A   Scattered Clouds
11:55 PM 69.8 °F - 69.8 °F 100% 30.15 in 7.0 mi Calm Calm - N/A   Partly Cloudy